Regional Weather Roundup
Issued by NWS Cleveland, OH

Home | Current Version | Previous Version | Text Only | Print | Product List | Glossary On
Versions: 1 2 3 4 5 6 7 8 9 10 11 12 13 14 15 16 17 18 19 20 21 22 23 24 25 26 27 28 29 30 31 32 33 34 35 36 37 38 39 40 41 42 43 44 45 46 47 48 49 50
000
ASUS41 KCLE 160012
RWRCLE
OHIO REGIONAL WEATHER ROUNDUP
NATIONAL WEATHER SERVICE WILMINGTON, OH
700 PM EST FRI DEC 15 2017

NOTE: "FAIR" INDICATES FEW OR NO CLOUDS BELOW 12,000 FEET WITH NO
SIGNIFICANT WEATHER AND/OR OBSTRUCTIONS TO VISIBILITY.

OHZ001>008-015>018-024>027-034-035-043-044-160100-
   NORTHWEST OHIO

CITY           SKY/WX    TMP DP  RH WIND       PRES   REMARKS
DEFIANCE       CLOUDY    27  16  63 SW9       29.93S WCI  18
FINDLAY        CLOUDY    25  15  66 SW10      29.95R WCI  15
TOLEDO EXPRESS CLOUDY    26  17  68 SW13      29.92R WCI  15
TOLEDO EXEC    MOCLDY    25  15  66 SW10      29.93R WCI  15
LIMA           CLOUDY    26  18  71 SW10      29.96R WCI  16
$$

OHZ009>014-019>023-028>033-038-089-160100-
   NORTHEAST OHIO

CITY           SKY/WX    TMP DP  RH WIND       PRES   REMARKS
CLE-HOPKINS    CLOUDY    27  19  72 W16       29.94R WCI  15
CLE-LAKEFRONT  CLOUDY    28  17  63 SW26G35   29.91R WCI  13
CUY CO. ARPT   CLOUDY    27  18  69 SW23G29   29.88R WCI  12
LORAIN-ELYRIA  CLOUDY    25  15  66 W14       29.93R WCI  13
ASHTABULA      LGT SNOW  24  21  88 SW14      29.86R FOG     WCI  12
AKRON-CANTON   CLOUDY    26  16  65 W13       29.91R WCI  15
WOOSTER        CLOUDY    25  18  74 W15       29.93R WCI  13
MANSFIELD      CLOUDY    25  19  78 W15G25    29.93R WCI  13
YOUNGSTOWN     FLURRIES  24  17  74 SW13      29.87R WCI  12
$$

OHZ042-051>053-060>062-070>072-077>081-160100-
  SOUTHWEST OHIO

CITY           SKY/WX    TMP DP  RH WIND       PRES   REMARKS
CINC-COVINGTON MOCLDY    31  22  69 W6        30.06R WCI  25
CINC-LUNKEN    CLOUDY    32  21  64 W6        30.10R WCI  26
HAMILTON       MOCLDY    31  21  66 W7        30.08R WCI  24
DAYTON         FAIR      28  22  78 W13       30.03R WCI  17
WRIGHT-PAT AFB CLOUDY    29  20  68 W12       30.03R WCI  20
DAYTON GENERAL MOCLDY    29  20  69 SW8       30.03R WCI  21
WILMINGTON     MOCLDY    29  20  69 W15       30.03R WCI  18
$$

OHZ036-037-039>041-045>050-054>059-063>069-073>076-082>088-160100-
  CENTRAL AND SOUTHEAST OHIO

CITY           SKY/WX    TMP DP  RH WIND       PRES   REMARKS
COLUMBUS       CLOUDY    31  19  61 W17       30.00R WCI  19
OSU AIRPORT    CLOUDY    29  20  69 W14G24    30.00R WCI  18
BOLTON FIELD   CLOUDY    28  19  69 W13       30.02R WCI  18
RICKENBACK AFB CLOUDY    29  20  69 W13       30.02R WCI  19
NEWARK         CLOUDY    30  20  66 SW12      29.99R WCI  20
MARION         FAIR      24  14  65 W8        29.98  WCI  15
LANCASTER      CLOUDY    30  20  66 W12G22    30.02R WCI  20
ZANESVILLE     CLOUDY    31  19  61 W14       29.99R WCI  21
NEW PHILLY     CLOUDY    27  21  78 VRB7      29.97R WCI  19
$$




USA.gov is the U.S. government's official web portal to all federal, state and local government web resources and services.